Regional Weather Roundup
Issued by NWS Midland/Odessa, TX

Home | Current Version | Previous Version | Text Only | Print | Product List | Glossary On
Versions: 1 2 3 4 5 6 7 8 9 10 11 12 13 14 15 16 17 18 19 20 21 22 23 24 25 26 27 28 29 30 31 32 33 34 35 36 37 38 39 40 41 42 43 44 45 46 47 48 49 50
000
ASUS44 KMAF 281110
RWRMAF
MIDLAND AREA WEATHER ROUNDUP
NATIONAL WEATHER SERVICE MIDLAND TX
600 AM CDT SAT MAR 28 2015

...IN SOUTHWEST TEXAS AND SOUTHEAST NEW MEXICO...

CITY           SKY/WX    TMP DP  RH WIND       PRES   REMARKS
ALPINE         CLEAR     51  28  41 SW8       30.24S
ANDREWS        FAIR      52  34  51 SW10      30.07R
ARTESIA        CLEAR     48  25  40 S3        30.07F
BIG SPRING     CLEAR     57  34  41 S15       30.07S
CARLSBAD       CLEAR     43  33  68 NW3       30.05F
DRYDEN           N/A     51  40  65 N7        30.09S
FORT STOCKTON  CLEAR     57  31  37 SW15      30.08S
GUAD PASS      CLEAR     56  18  22 SW16      30.19F
HOBBS          CLEAR     45  32  61 SW7       30.08S
MARFA          CLEAR     36  28  75 N5        30.22S WCI  32
MIDLAND AIRPK  CLEAR     57  35  44 S10       30.06F
MIDLAND INTL   CLEAR     53  37  54 S7        30.06S
ODESSA         CLEAR     51  35  54 SW6       30.07S
PECOS          CLEAR     45  37  73 CALM      30.06S
PRESIDIO       FAIR      56  32  40 N14       30.13S
SEMINOLE       CLEAR     47  35  64 W9        30.07S
SNYDER         CLEAR     51  35  52 S9        30.06S
WINK           CLEAR     47  36  65 SE7       30.05F
$$
...OTHER STATIONS IN TEXAS...

CITY           SKY/WX    TMP DP  RH WIND       PRES   REMARKS
ABILENE        CLEAR     55  37  50 SE12      30.07S
AMARILLO       CLEAR     44  35  70 S10       30.05F WCI  39
AUSTIN         CLEAR     42  41  96 CALM      30.13R
BROWNSVILLE    CLEAR     54  52  93 CALM      30.17R
CORPUS CHRISTI CLEAR     54  50  86 SW6       30.14S
DALLAS FTW     PTCLDY    47  38  71 SE6       30.08S
DEL RIO        CLEAR     54  40  59 E10       30.09F
EL PASO        CLEAR     54  22  28 SE8       30.12S
HOUSTON INT    CLEAR     51  44  77 CALM      30.14R
LUBBOCK        CLEAR     42  35  76 SE7       30.03F WCI  38
SAN ANGELO     CLEAR     58  35  42 SW14      30.07S
SAN ANTONIO    CLEAR     58  40  51 W7        30.13S
WACO           CLEAR     46  40  79 S8        30.11F
WICHITA FALLS  NOT AVBL
$$
...OTHER LOCATIONS IN NEW MEXICO...

CITY           SKY/WX    TMP DP  RH WIND       PRES   REMARKS
ALAMAGORDO     PTCLDY    48  16  27 N3        30.14R
ALBUQUERQUE    CLEAR     45  19  35 SE5       30.20R
CANNON AFB     CLEAR     50  30  46 NW13      30.05S
CLOVIS         CLEAR     39  30  70 N12       30.06S WCI  32
HOLLOMAN AFB   PTCLDY    47  19  32 CALM      30.12S
ROSWELL        CLEAR     44  29  55 CALM      30.06S
RUIDOSO        CLEAR     48  14  25 W7        30.26R
SANTA FE       CLEAR     41  20  43 N9        30.22R WCI  35
TRUTH OR CONSE CLEAR     56  12  17 NW10      30.17S
TUCUMCARI      CLEAR     42  30  62 NW13      30.07R WCI  35
$$


USA.gov is the U.S. government's official web portal to all federal, state and local government web resources and services.